Year,Month,Day,Hour,Minute,Value (Times are PST for windgust in km/hr)
2010,07,14,00,00,1.60
2010,07,14,00,02,1.60
2010,07,14,00,03,3.20
2010,07,14,00,07,1.60
2010,07,14,00,09,1.60
2010,07,14,00,10,1.60
2010,07,14,00,11,6.40
2010,07,14,00,12,3.20
2010,07,14,00,13,1.60
2010,07,14,00,14,1.60
2010,07,14,00,15,3.20
2010,07,14,00,16,1.60
2010,07,14,00,17,1.60
2010,07,14,00,18,1.60
2010,07,14,00,19,3.20
2010,07,14,00,20,1.60
2010,07,14,00,21,4.80
2010,07,14,00,22,3.20
2010,07,14,00,23,3.20
2010,07,14,00,24,3.20
2010,07,14,00,25,3.20
2010,07,14,00,26,1.60
2010,07,14,00,27,1.60
2010,07,14,00,28,1.60
2010,07,14,00,29,1.60
2010,07,14,00,30,4.80
2010,07,14,00,31,4.80
2010,07,14,00,32,4.80
2010,07,14,00,33,1.60
2010,07,14,00,34,1.60
2010,07,14,00,35,1.60
2010,07,14,00,36,3.20
2010,07,14,00,38,1.60
2010,07,14,00,39,1.60
2010,07,14,00,40,1.60
2010,07,14,00,41,1.60
2010,07,14,00,42,1.60
2010,07,14,00,43,1.60
2010,07,14,00,44,1.60
2010,07,14,00,46,1.60
2010,07,14,00,47,1.60
2010,07,14,00,48,1.60
2010,07,14,00,50,3.20
2010,07,14,00,54,1.60
2010,07,14,00,56,1.60
2010,07,14,01,01,1.60
2010,07,14,01,03,1.60
2010,07,14,01,05,1.60
2010,07,14,01,06,1.60
2010,07,14,01,08,3.20
2010,07,14,01,09,1.60
2010,07,14,01,10,1.60
2010,07,14,01,14,1.60
2010,07,14,01,16,4.80
2010,07,14,01,17,4.80
2010,07,14,01,18,4.80
2010,07,14,01,19,6.40
2010,07,14,01,20,4.80
2010,07,14,01,21,3.20
2010,07,14,01,23,1.60
2010,07,14,01,24,1.60
2010,07,14,01,25,3.20
2010,07,14,01,26,3.20
2010,07,14,01,27,1.60
2010,07,14,01,30,1.60
2010,07,14,01,31,1.60
2010,07,14,01,32,1.60
2010,07,14,01,33,1.60
2010,07,14,01,34,4.80
2010,07,14,01,35,1.60
2010,07,14,01,36,1.60
2010,07,14,01,38,1.60
2010,07,14,01,41,1.60
2010,07,14,01,43,1.60
2010,07,14,01,44,3.20
2010,07,14,01,45,1.60
2010,07,14,01,46,3.20
2010,07,14,01,49,1.60
2010,07,14,01,50,1.60
2010,07,14,01,54,1.60
2010,07,14,01,55,1.60
2010,07,14,01,57,1.60
2010,07,14,02,01,1.60
2010,07,14,02,07,1.60
2010,07,14,02,08,1.60
2010,07,14,02,09,1.60
2010,07,14,02,10,1.60
2010,07,14,02,12,1.60
2010,07,14,02,13,1.60
2010,07,14,02,14,1.60
2010,07,14,02,30,1.60
2010,07,14,02,31,1.60
2010,07,14,02,33,1.60
2010,07,14,02,34,1.60
2010,07,14,02,35,1.60
2010,07,14,02,36,1.60
2010,07,14,02,37,1.60
2010,07,14,03,41,1.60
2010,07,14,04,38,1.60
2010,07,14,04,40,1.60
2010,07,14,04,41,1.60
2010,07,14,04,43,1.60
2010,07,14,04,44,3.20
2010,07,14,04,47,1.60
2010,07,14,04,48,1.60
2010,07,14,04,49,1.60
2010,07,14,04,50,4.80
2010,07,14,04,53,1.60
2010,07,14,04,58,1.60
2010,07,14,04,59,1.60
2010,07,14,05,00,1.60
2010,07,14,05,01,1.60
2010,07,14,05,02,1.60
2010,07,14,05,03,1.60
2010,07,14,05,43,1.60
2010,07,14,06,31,1.60
2010,07,14,06,35,1.60
2010,07,14,07,13,1.60
2010,07,14,07,18,1.60
2010,07,14,07,20,1.60
2010,07,14,07,21,1.60
2010,07,14,07,22,1.60
2010,07,14,07,25,1.60
2010,07,14,07,26,1.60
2010,07,14,07,29,1.60
2010,07,14,07,30,1.60
2010,07,14,07,31,1.60
2010,07,14,07,33,1.60
2010,07,14,07,34,1.60
2010,07,14,07,35,1.60
2010,07,14,07,42,1.60
2010,07,14,07,44,1.60
2010,07,14,07,46,1.60
2010,07,14,07,47,1.60
2010,07,14,07,50,1.60
2010,07,14,07,51,1.60
2010,07,14,07,53,1.60
2010,07,14,07,54,3.20
2010,07,14,07,56,1.60
2010,07,14,07,57,1.60
2010,07,14,07,58,1.60
2010,07,14,07,59,1.60
2010,07,14,08,00,1.60
2010,07,14,08,01,1.60
2010,07,14,08,02,1.60
2010,07,14,08,03,1.60
2010,07,14,08,04,1.60
2010,07,14,08,05,3.20
2010,07,14,08,06,3.20
2010,07,14,08,07,1.60
2010,07,14,08,08,1.60
2010,07,14,08,09,3.20
2010,07,14,08,10,1.60
2010,07,14,08,11,3.20
2010,07,14,08,12,3.20
2010,07,14,08,13,1.60
2010,07,14,08,14,4.80
2010,07,14,08,15,3.20
2010,07,14,08,16,3.20
2010,07,14,08,17,3.20
2010,07,14,08,18,4.80
2010,07,14,08,19,3.20
2010,07,14,08,20,4.80
2010,07,14,08,21,3.20
2010,07,14,08,22,3.20
2010,07,14,08,23,4.80
2010,07,14,08,24,1.60
2010,07,14,08,25,3.20
2010,07,14,08,26,3.20
2010,07,14,08,27,3.20
2010,07,14,08,28,4.80
2010,07,14,08,29,4.80
2010,07,14,08,30,4.80
2010,07,14,08,31,6.40
2010,07,14,08,32,4.80
2010,07,14,08,33,3.20
2010,07,14,08,34,3.20
2010,07,14,08,35,3.20
2010,07,14,08,36,1.60
2010,07,14,08,37,1.60
2010,07,14,08,38,3.20
2010,07,14,08,39,3.20
2010,07,14,08,40,3.20
2010,07,14,08,41,1.60
2010,07,14,08,42,4.80
2010,07,14,08,43,3.20
2010,07,14,08,44,1.60
2010,07,14,08,45,3.20
2010,07,14,08,46,4.80
2010,07,14,08,47,3.20
2010,07,14,08,48,1.60
2010,07,14,08,49,3.20
2010,07,14,08,50,3.20
2010,07,14,08,52,3.20
2010,07,14,08,53,1.60
2010,07,14,08,54,6.40
2010,07,14,08,55,4.80
2010,07,14,08,56,3.20
2010,07,14,08,57,4.80
2010,07,14,08,58,3.20
2010,07,14,08,59,4.80
2010,07,14,09,00,1.60
2010,07,14,09,01,1.60
2010,07,14,09,02,4.80
2010,07,14,09,03,4.80
2010,07,14,09,04,4.80
2010,07,14,09,05,6.40
2010,07,14,09,06,3.20
2010,07,14,09,07,3.20
2010,07,14,09,08,3.20
2010,07,14,09,09,3.20
2010,07,14,09,10,4.80
2010,07,14,09,11,3.20
2010,07,14,09,12,3.20
2010,07,14,09,13,4.80
2010,07,14,09,14,3.20
2010,07,14,09,15,4.80
2010,07,14,09,16,3.20
2010,07,14,09,17,6.40
2010,07,14,09,18,9.60
2010,07,14,09,19,3.20
2010,07,14,09,20,8.10
2010,07,14,09,21,8.10
2010,07,14,09,22,6.40
2010,07,14,09,23,6.40
2010,07,14,09,24,8.10
2010,07,14,09,25,8.10
2010,07,14,09,26,11.30
2010,07,14,09,27,6.40
2010,07,14,09,28,6.40
2010,07,14,09,29,9.60
2010,07,14,09,30,6.40
2010,07,14,09,31,4.80
2010,07,14,09,32,8.10
2010,07,14,09,33,6.40
2010,07,14,09,34,6.40
2010,07,14,09,35,4.80
2010,07,14,09,36,4.80
2010,07,14,09,37,9.60
2010,07,14,09,38,4.80
2010,07,14,09,39,3.20
2010,07,14,09,40,3.20
2010,07,14,09,41,6.40
2010,07,14,09,42,8.10
2010,07,14,09,43,6.40
2010,07,14,09,44,6.40
2010,07,14,09,45,1.60
2010,07,14,09,46,4.80
2010,07,14,09,47,6.40
2010,07,14,09,48,4.80
2010,07,14,09,49,4.80
2010,07,14,09,50,6.40
2010,07,14,09,51,4.80
2010,07,14,09,52,3.20
2010,07,14,09,53,3.20
2010,07,14,09,54,3.20
2010,07,14,09,55,3.20
2010,07,14,09,56,4.80
2010,07,14,09,57,4.80
2010,07,14,09,58,4.80
2010,07,14,09,59,3.20
2010,07,14,10,00,4.80
2010,07,14,10,01,1.60
2010,07,14,10,02,4.80
2010,07,14,10,03,8.10
2010,07,14,10,04,4.80
2010,07,14,10,05,1.60
2010,07,14,10,06,4.80
2010,07,14,10,07,6.40
2010,07,14,10,08,6.40
2010,07,14,10,09,4.80
2010,07,14,10,10,4.80
2010,07,14,10,11,8.10
2010,07,14,10,12,3.20
2010,07,14,10,13,4.80
2010,07,14,10,14,6.40
2010,07,14,10,15,6.40
2010,07,14,10,16,8.10
2010,07,14,10,17,9.60
2010,07,14,10,18,8.10
2010,07,14,10,19,8.10
2010,07,14,10,20,6.40
2010,07,14,10,21,6.40
2010,07,14,10,22,9.60
2010,07,14,10,23,8.10
2010,07,14,10,24,3.20
2010,07,14,10,25,6.40
2010,07,14,10,26,3.20
2010,07,14,10,27,4.80
2010,07,14,10,28,1.60
2010,07,14,10,29,3.20
2010,07,14,10,30,6.40
2010,07,14,10,31,8.10
2010,07,14,10,32,6.40
2010,07,14,10,33,4.80
2010,07,14,10,34,9.60
2010,07,14,10,35,9.60
2010,07,14,10,36,6.40
2010,07,14,10,37,8.10
2010,07,14,10,38,4.80
2010,07,14,10,39,9.60
2010,07,14,10,40,4.80
2010,07,14,10,41,6.40
2010,07,14,10,42,4.80
2010,07,14,10,43,4.80
2010,07,14,10,44,6.40
2010,07,14,10,45,3.20
2010,07,14,10,46,6.40
2010,07,14,10,47,1.60
2010,07,14,10,48,4.80
2010,07,14,10,49,3.20
2010,07,14,10,50,8.10
2010,07,14,10,51,1.60
2010,07,14,10,52,6.40
2010,07,14,10,53,4.80
2010,07,14,10,54,1.60
2010,07,14,10,55,3.20
2010,07,14,10,56,3.20
2010,07,14,10,57,1.60
2010,07,14,10,58,11.30
2010,07,14,10,59,9.60
2010,07,14,11,00,3.20
2010,07,14,11,01,6.40
2010,07,14,11,02,8.10
2010,07,14,11,03,9.60
2010,07,14,11,04,6.40
2010,07,14,11,05,8.10
2010,07,14,11,06,6.40
2010,07,14,11,07,6.40
2010,07,14,11,08,6.40
2010,07,14,11,09,6.40
2010,07,14,11,10,4.80
2010,07,14,11,11,8.10
2010,07,14,11,12,9.60
2010,07,14,11,13,8.10
2010,07,14,11,14,9.60
2010,07,14,11,15,6.40
2010,07,14,11,16,9.60
2010,07,14,11,17,8.10
2010,07,14,11,18,8.10
2010,07,14,11,19,8.10
2010,07,14,11,20,8.10
2010,07,14,11,21,8.10
2010,07,14,11,22,8.10
2010,07,14,11,23,9.60
2010,07,14,11,24,4.80
2010,07,14,11,25,6.40
2010,07,14,11,26,3.20
2010,07,14,11,27,4.80
2010,07,14,11,28,6.40
2010,07,14,11,29,8.10
2010,07,14,11,30,6.40
2010,07,14,11,31,9.60
2010,07,14,11,32,6.40
2010,07,14,11,33,9.60
2010,07,14,11,34,12.90
2010,07,14,11,35,8.10
2010,07,14,11,36,8.10
2010,07,14,11,37,8.10
2010,07,14,11,38,8.10
2010,07,14,11,39,9.60
2010,07,14,11,40,8.10
2010,07,14,11,41,6.40
2010,07,14,11,42,4.80
2010,07,14,11,43,4.80
2010,07,14,11,44,3.20
2010,07,14,11,45,9.60
2010,07,14,11,46,11.30
2010,07,14,11,47,11.30
2010,07,14,11,48,11.30
2010,07,14,11,49,9.60
2010,07,14,11,50,3.20
2010,07,14,11,51,9.60
2010,07,14,11,52,11.30
2010,07,14,11,53,4.80
2010,07,14,11,54,11.30
2010,07,14,11,55,8.10
2010,07,14,11,56,8.10
2010,07,14,11,57,3.20
2010,07,14,11,58,3.20
2010,07,14,11,59,14.50
2010,07,14,12,00,12.90
2010,07,14,12,01,16.10
2010,07,14,12,02,12.90
2010,07,14,12,03,16.10
2010,07,14,12,04,11.30
2010,07,14,12,05,8.10
2010,07,14,12,13,11.30
2010,07,14,12,14,8.10
2010,07,14,12,15,9.60
2010,07,14,12,16,14.50
2010,07,14,12,17,9.60
2010,07,14,12,18,8.10
2010,07,14,12,19,6.40
2010,07,14,12,20,6.40
2010,07,14,12,21,11.30
2010,07,14,12,22,8.10
2010,07,14,12,23,12.90
2010,07,14,12,24,12.90
2010,07,14,12,25,9.60
2010,07,14,12,26,17.70
2010,07,14,12,27,9.60
2010,07,14,12,28,6.40
2010,07,14,12,29,6.40
2010,07,14,12,30,9.60
2010,07,14,12,31,9.60
2010,07,14,12,32,11.30
2010,07,14,12,33,14.50
2010,07,14,12,34,11.30
2010,07,14,12,35,8.10
2010,07,14,12,36,8.10
2010,07,14,12,37,12.90
2010,07,14,12,38,11.30
2010,07,14,12,39,11.30
2010,07,14,12,40,11.30
2010,07,14,12,41,11.30
2010,07,14,12,42,8.10
2010,07,14,12,43,6.40
2010,07,14,12,44,16.10
2010,07,14,12,45,9.60
2010,07,14,12,46,8.10
2010,07,14,12,47,9.60
2010,07,14,12,48,9.60
2010,07,14,12,49,9.60
2010,07,14,12,50,8.10
2010,07,14,12,51,14.50
2010,07,14,12,52,11.30
2010,07,14,12,53,8.10
2010,07,14,12,54,16.10
2010,07,14,12,55,16.10
2010,07,14,12,56,11.30
2010,07,14,12,57,9.60
2010,07,14,12,58,16.10
2010,07,14,12,59,17.70
2010,07,14,13,00,19.30
2010,07,14,13,01,12.90
2010,07,14,13,02,11.30
2010,07,14,13,03,11.30
2010,07,14,13,04,14.50
2010,07,14,13,05,9.60
2010,07,14,13,06,9.60
2010,07,14,13,07,14.50
2010,07,14,13,08,11.30
2010,07,14,13,09,11.30
2010,07,14,13,10,11.30
2010,07,14,13,11,11.30
2010,07,14,13,12,16.10
2010,07,14,13,13,14.50
2010,07,14,13,14,8.10
2010,07,14,13,15,11.30
2010,07,14,13,16,4.80
2010,07,14,13,17,11.30
2010,07,14,13,18,6.40
2010,07,14,13,19,6.40
2010,07,14,13,20,11.30
2010,07,14,13,21,14.50
2010,07,14,13,22,11.30
2010,07,14,13,23,11.30
2010,07,14,13,24,6.40
2010,07,14,13,25,14.50
2010,07,14,13,26,16.10
2010,07,14,13,27,11.30
2010,07,14,13,28,16.10
2010,07,14,13,29,8.10
2010,07,14,13,30,11.30
2010,07,14,13,31,8.10
2010,07,14,13,32,9.60
2010,07,14,13,33,11.30
2010,07,14,13,34,14.50
2010,07,14,13,35,9.60
2010,07,14,13,36,11.30
2010,07,14,13,37,11.30
2010,07,14,13,38,14.50
2010,07,14,13,39,14.50
2010,07,14,13,40,12.90
2010,07,14,13,41,8.10
2010,07,14,13,42,14.50
2010,07,14,13,43,12.90
2010,07,14,13,44,12.90
2010,07,14,13,45,9.60
2010,07,14,13,46,6.40
2010,07,14,13,47,6.40
2010,07,14,13,48,9.60
2010,07,14,13,49,9.60
2010,07,14,13,50,8.10
2010,07,14,13,51,6.40
2010,07,14,13,52,12.90
2010,07,14,13,53,11.30
2010,07,14,13,54,3.20
2010,07,14,13,55,11.30
2010,07,14,13,56,11.30
2010,07,14,13,57,11.30
2010,07,14,13,58,9.60
2010,07,14,13,59,8.10
2010,07,14,14,00,14.50
2010,07,14,14,01,6.40
2010,07,14,14,02,17.70
2010,07,14,14,03,8.10
2010,07,14,14,04,11.30
2010,07,14,14,05,11.30
2010,07,14,14,06,8.10
2010,07,14,14,07,8.10
2010,07,14,14,08,11.30
2010,07,14,14,09,9.60
2010,07,14,14,10,11.30
2010,07,14,14,11,9.60
2010,07,14,14,12,11.30
2010,07,14,14,13,12.90
2010,07,14,14,14,9.60
2010,07,14,14,15,9.60
2010,07,14,14,16,11.30
2010,07,14,14,17,14.50
2010,07,14,14,18,6.40
2010,07,14,14,19,9.60
2010,07,14,14,20,11.30
2010,07,14,14,21,11.30
2010,07,14,14,22,11.30
2010,07,14,14,23,11.30
2010,07,14,14,24,11.30
2010,07,14,14,25,14.50
2010,07,14,14,26,14.50
2010,07,14,14,27,11.30
2010,07,14,14,28,11.30
2010,07,14,14,29,11.30
2010,07,14,14,30,11.30
2010,07,14,14,31,8.10
2010,07,14,14,32,11.30
2010,07,14,14,33,11.30
2010,07,14,14,34,14.50
2010,07,14,14,35,11.30
2010,07,14,14,36,16.10
2010,07,14,14,37,11.30
2010,07,14,14,38,9.60
2010,07,14,14,39,11.30
2010,07,14,14,40,12.90
2010,07,14,14,41,14.50
2010,07,14,14,42,14.50
2010,07,14,14,43,9.60
2010,07,14,14,44,14.50
2010,07,14,14,45,4.80
2010,07,14,14,46,6.40
2010,07,14,14,47,9.60
2010,07,14,14,48,9.60
2010,07,14,14,49,11.30
2010,07,14,14,50,9.60
2010,07,14,14,51,6.40
2010,07,14,14,52,9.60
2010,07,14,14,53,14.50
2010,07,14,14,54,14.50
2010,07,14,14,55,17.70
2010,07,14,14,56,9.60
2010,07,14,14,57,16.10
2010,07,14,14,58,12.90
2010,07,14,14,59,11.30
2010,07,14,15,00,9.60
2010,07,14,15,01,16.10
2010,07,14,15,02,12.90
2010,07,14,15,03,11.30
2010,07,14,15,04,8.10
2010,07,14,15,05,14.50
2010,07,14,15,06,16.10
2010,07,14,15,07,11.30
2010,07,14,15,08,14.50
2010,07,14,15,09,14.50
2010,07,14,15,10,16.10
2010,07,14,15,11,14.50
2010,07,14,15,12,11.30
2010,07,14,15,13,12.90
2010,07,14,15,14,11.30
2010,07,14,15,15,14.50
2010,07,14,15,16,14.50
2010,07,14,15,17,9.60
2010,07,14,15,18,11.30
2010,07,14,15,19,11.30
2010,07,14,15,20,8.10
2010,07,14,15,21,9.60
2010,07,14,15,22,9.60
2010,07,14,15,23,14.50
2010,07,14,15,24,11.30
2010,07,14,15,25,11.30
2010,07,14,15,26,11.30
2010,07,14,15,27,11.30
2010,07,14,15,28,11.30
2010,07,14,15,29,14.50
2010,07,14,15,30,16.10
2010,07,14,15,31,16.10
2010,07,14,15,32,14.50
2010,07,14,15,33,4.80
2010,07,14,15,34,8.10
2010,07,14,15,35,9.60
2010,07,14,15,36,9.60
2010,07,14,15,37,14.50
2010,07,14,15,38,11.30
2010,07,14,15,39,14.50
2010,07,14,15,40,12.90
2010,07,14,15,41,9.60
2010,07,14,15,42,11.30
2010,07,14,15,43,14.50
2010,07,14,15,44,14.50
2010,07,14,15,45,6.40
2010,07,14,15,46,9.60
2010,07,14,15,47,9.60
2010,07,14,15,48,6.40
2010,07,14,15,49,14.50
2010,07,14,15,50,12.90
2010,07,14,15,51,14.50
2010,07,14,15,52,16.10
2010,07,14,15,53,14.50
2010,07,14,15,54,14.50
2010,07,14,15,55,11.30
2010,07,14,15,56,14.50
2010,07,14,15,57,14.50
2010,07,14,15,58,17.70
2010,07,14,15,59,11.30
2010,07,14,16,00,9.60
2010,07,14,16,01,9.60
2010,07,14,16,02,9.60
2010,07,14,16,03,9.60
2010,07,14,16,04,11.30
2010,07,14,16,05,14.50
2010,07,14,16,06,9.60
2010,07,14,16,07,9.60
2010,07,14,16,08,11.30
2010,07,14,16,09,16.10
2010,07,14,16,10,12.90
2010,07,14,16,11,16.10
2010,07,14,16,12,16.10
2010,07,14,16,13,11.30
2010,07,14,16,14,11.30
2010,07,14,16,15,9.60
2010,07,14,16,16,11.30
2010,07,14,16,17,9.60
2010,07,14,16,18,12.90
2010,07,14,16,19,11.30
2010,07,14,16,20,9.60
2010,07,14,16,21,11.30
2010,07,14,16,22,9.60
2010,07,14,16,23,9.60
2010,07,14,16,24,9.60
2010,07,14,16,25,11.30
2010,07,14,16,26,12.90
2010,07,14,16,27,9.60
2010,07,14,16,28,6.40
2010,07,14,16,29,9.60
2010,07,14,16,30,6.40
2010,07,14,16,31,12.90
2010,07,14,16,32,14.50
2010,07,14,16,33,11.30
2010,07,14,16,34,4.80
2010,07,14,16,35,9.60
2010,07,14,16,36,9.60
2010,07,14,16,37,14.50
2010,07,14,16,38,11.30
2010,07,14,16,39,14.50
2010,07,14,16,40,14.50
2010,07,14,16,41,11.30
2010,07,14,16,42,11.30
2010,07,14,16,43,8.10
2010,07,14,16,44,14.50
2010,07,14,16,45,11.30
2010,07,14,16,46,11.30
2010,07,14,16,47,11.30
2010,07,14,16,48,8.10
2010,07,14,16,49,8.10
2010,07,14,16,50,9.60
2010,07,14,16,51,6.40
2010,07,14,16,52,9.60
2010,07,14,16,53,11.30
2010,07,14,16,54,11.30
2010,07,14,16,55,11.30
2010,07,14,16,56,9.60
2010,07,14,16,57,8.10
2010,07,14,16,58,6.40
2010,07,14,16,59,8.10
2010,07,14,17,00,11.30
2010,07,14,17,01,14.50
2010,07,14,17,02,8.10
2010,07,14,17,03,8.10
2010,07,14,17,04,8.10
2010,07,14,17,05,16.10
2010,07,14,17,06,14.50
2010,07,14,17,07,8.10
2010,07,14,17,08,9.60
2010,07,14,17,09,11.30
2010,07,14,17,10,12.90
2010,07,14,17,11,11.30
2010,07,14,17,12,9.60
2010,07,14,17,13,9.60
2010,07,14,17,14,9.60
2010,07,14,17,15,14.50
2010,07,14,17,16,12.90
2010,07,14,17,17,11.30
2010,07,14,17,18,9.60
2010,07,14,17,19,16.10
2010,07,14,17,20,11.30
2010,07,14,17,21,11.30
2010,07,14,17,22,11.30
2010,07,14,17,23,16.10
2010,07,14,17,24,11.30
2010,07,14,17,25,14.50
2010,07,14,17,26,11.30
2010,07,14,17,27,8.10
2010,07,14,17,28,14.50
2010,07,14,17,29,16.10
2010,07,14,17,30,12.90
2010,07,14,17,31,14.50
2010,07,14,17,32,14.50
2010,07,14,17,33,16.10
2010,07,14,17,34,16.10
2010,07,14,17,35,12.90
2010,07,14,17,36,16.10
2010,07,14,17,37,14.50
2010,07,14,17,38,11.30
2010,07,14,17,39,16.10
2010,07,14,17,40,19.30
2010,07,14,17,41,14.50
2010,07,14,17,42,11.30
2010,07,14,17,43,9.60
2010,07,14,17,44,16.10
2010,07,14,17,45,14.50
2010,07,14,17,46,19.30
2010,07,14,17,47,14.50
2010,07,14,17,48,12.90
2010,07,14,17,49,16.10
2010,07,14,17,50,16.10
2010,07,14,17,51,19.30
2010,07,14,17,52,14.50
2010,07,14,17,53,12.90
2010,07,14,17,54,11.30
2010,07,14,17,55,6.40
2010,07,14,17,56,9.60
2010,07,14,17,57,8.10
2010,07,14,17,58,8.10
2010,07,14,17,59,8.10
2010,07,14,18,00,16.10
2010,07,14,18,01,19.30
2010,07,14,18,02,14.50
2010,07,14,18,03,11.30
2010,07,14,18,04,11.30
2010,07,14,18,05,9.60
2010,07,14,18,06,14.50
2010,07,14,18,07,17.70
2010,07,14,18,08,11.30
2010,07,14,18,09,16.10
2010,07,14,18,10,17.70
2010,07,14,18,11,11.30
2010,07,14,18,12,11.30
2010,07,14,18,13,22.50
2010,07,14,18,14,16.10
2010,07,14,18,15,17.70
2010,07,14,18,16,17.70
2010,07,14,18,17,22.50
2010,07,14,18,18,11.30
2010,07,14,18,19,8.10
2010,07,14,18,20,20.90
2010,07,14,18,21,19.30
2010,07,14,18,22,17.70
2010,07,14,18,23,16.10
2010,07,14,18,24,6.40
2010,07,14,18,25,6.40
2010,07,14,18,26,16.10
2010,07,14,18,27,14.50
2010,07,14,18,28,9.60
2010,07,14,18,29,9.60
2010,07,14,18,30,19.30
2010,07,14,18,31,17.70
2010,07,14,18,32,22.50
2010,07,14,18,33,22.50
2010,07,14,18,34,17.70
2010,07,14,18,35,17.70
2010,07,14,18,36,11.30
2010,07,14,18,37,11.30
2010,07,14,18,38,12.90
2010,07,14,18,39,16.10
2010,07,14,18,40,9.60
2010,07,14,18,41,16.10
2010,07,14,18,42,11.30
2010,07,14,18,43,9.60
2010,07,14,18,44,14.50
2010,07,14,18,45,16.10
2010,07,14,18,46,12.90
2010,07,14,18,47,9.60
2010,07,14,18,48,9.60
2010,07,14,18,49,11.30
2010,07,14,18,50,11.30
2010,07,14,18,51,16.10
2010,07,14,18,52,17.70
2010,07,14,18,53,16.10
2010,07,14,18,54,14.50
2010,07,14,18,55,11.30
2010,07,14,18,56,14.50
2010,07,14,18,57,11.30
2010,07,14,18,58,11.30
2010,07,14,18,59,14.50
2010,07,14,19,00,11.30
2010,07,14,19,01,11.30
2010,07,14,19,02,9.60
2010,07,14,19,03,9.60
2010,07,14,19,04,16.10
2010,07,14,19,05,16.10
2010,07,14,19,06,11.30
2010,07,14,19,07,17.70
2010,07,14,19,08,16.10
2010,07,14,19,09,17.70
2010,07,14,19,10,14.50
2010,07,14,19,11,12.90
2010,07,14,19,12,14.50
2010,07,14,19,13,11.30
2010,07,14,19,14,9.60
2010,07,14,19,15,6.40
2010,07,14,19,16,16.10
2010,07,14,19,17,14.50
2010,07,14,19,18,11.30
2010,07,14,19,19,11.30
2010,07,14,19,20,11.30
2010,07,14,19,21,9.60
2010,07,14,19,22,14.50
2010,07,14,19,23,9.60
2010,07,14,19,24,16.10
2010,07,14,19,25,14.50
2010,07,14,19,26,14.50
2010,07,14,19,27,12.90
2010,07,14,19,28,11.30
2010,07,14,19,29,12.90
2010,07,14,19,30,9.60
2010,07,14,19,31,11.30
2010,07,14,19,32,11.30
2010,07,14,19,33,9.60
2010,07,14,19,34,8.10
2010,07,14,19,35,4.80
2010,07,14,19,36,11.30
2010,07,14,19,37,11.30
2010,07,14,19,38,11.30
2010,07,14,19,39,4.80
2010,07,14,19,40,6.40
2010,07,14,19,41,4.80
2010,07,14,19,42,3.20
2010,07,14,19,43,3.20
2010,07,14,19,44,6.40
2010,07,14,19,45,3.20
2010,07,14,19,46,3.20
2010,07,14,19,47,1.60
2010,07,14,19,48,4.80
2010,07,14,19,49,6.40
2010,07,14,19,50,8.10
2010,07,14,19,51,4.80
2010,07,14,19,52,9.60
2010,07,14,19,53,6.40
2010,07,14,19,54,11.30
2010,07,14,19,55,14.50
2010,07,14,19,56,9.60
2010,07,14,19,57,11.30
2010,07,14,19,58,12.90
2010,07,14,19,59,8.10
2010,07,14,20,00,8.10
2010,07,14,20,01,6.40
2010,07,14,20,02,8.10
2010,07,14,20,03,4.80
2010,07,14,20,04,4.80
2010,07,14,20,05,3.20
2010,07,14,20,06,8.10
2010,07,14,20,07,6.40
2010,07,14,20,08,4.80
2010,07,14,20,09,4.80
2010,07,14,20,10,4.80
2010,07,14,20,11,3.20
2010,07,14,20,12,6.40
2010,07,14,20,13,1.60
2010,07,14,20,14,6.40
2010,07,14,20,15,8.10
2010,07,14,20,16,6.40
2010,07,14,20,17,8.10
2010,07,14,20,18,6.40
2010,07,14,20,19,4.80
2010,07,14,20,20,8.10
2010,07,14,20,21,6.40
2010,07,14,20,22,6.40
2010,07,14,20,23,6.40
2010,07,14,20,24,1.60
2010,07,14,20,25,1.60
2010,07,14,20,26,3.20
2010,07,14,20,27,4.80
2010,07,14,20,28,6.40
2010,07,14,20,29,4.80
2010,07,14,20,30,3.20
2010,07,14,20,31,6.40
2010,07,14,20,32,4.80
2010,07,14,20,33,4.80
2010,07,14,20,34,1.60
2010,07,14,20,35,1.60
2010,07,14,20,36,1.60
2010,07,14,20,37,3.20
2010,07,14,20,39,1.60
2010,07,14,20,40,3.20
2010,07,14,20,41,1.60
2010,07,14,20,42,1.60
2010,07,14,20,43,1.60
2010,07,14,20,44,1.60
2010,07,14,20,45,3.20
2010,07,14,20,46,3.20
2010,07,14,20,47,4.80
2010,07,14,20,48,1.60
2010,07,14,20,49,1.60
2010,07,14,20,50,3.20
2010,07,14,20,51,1.60
2010,07,14,20,52,3.20
2010,07,14,20,53,3.20
2010,07,14,20,54,4.80
2010,07,14,20,55,4.80
2010,07,14,20,56,1.60
2010,07,14,20,57,4.80
2010,07,14,20,58,6.40
2010,07,14,20,59,8.10
2010,07,14,21,00,8.10
2010,07,14,21,01,8.10
2010,07,14,21,02,9.60
2010,07,14,21,03,3.20
2010,07,14,21,04,4.80
2010,07,14,21,05,6.40
2010,07,14,21,06,4.80
2010,07,14,21,07,3.20
2010,07,14,21,08,1.60
2010,07,14,21,10,1.60
2010,07,14,21,11,1.60
2010,07,14,21,13,1.60
2010,07,14,21,14,1.60
2010,07,14,21,16,6.40
2010,07,14,21,17,3.20
2010,07,14,21,18,3.20
2010,07,14,21,22,1.60
2010,07,14,21,23,1.60
2010,07,14,21,24,1.60
2010,07,14,21,25,1.60
2010,07,14,21,27,1.60
2010,07,14,21,28,3.20
2010,07,14,21,29,1.60
2010,07,14,21,30,1.60
2010,07,14,21,32,4.80
2010,07,14,21,33,4.80
2010,07,14,21,34,1.60
2010,07,14,21,35,4.80
2010,07,14,21,36,3.20
2010,07,14,21,37,1.60
2010,07,14,21,38,1.60
2010,07,14,21,39,1.60
2010,07,14,21,40,1.60
2010,07,14,21,42,1.60
2010,07,14,21,44,1.60
2010,07,14,21,46,1.60
2010,07,14,21,48,1.60
2010,07,14,21,49,1.60
2010,07,14,21,55,1.60
2010,07,14,21,56,1.60
2010,07,14,22,05,1.60
2010,07,14,22,06,1.60
2010,07,14,22,07,4.80
2010,07,14,22,08,3.20
2010,07,14,22,09,1.60
2010,07,14,22,10,1.60
2010,07,14,22,11,1.60
2010,07,14,22,13,1.60
2010,07,14,22,14,1.60
2010,07,14,22,15,1.60
2010,07,14,22,19,1.60
2010,07,14,22,20,3.20
2010,07,14,22,21,3.20
2010,07,14,22,22,3.20
2010,07,14,22,23,9.60
2010,07,14,22,24,8.10
2010,07,14,22,25,1.60
2010,07,14,22,26,1.60
2010,07,14,22,27,1.60
2010,07,14,22,29,1.60
2010,07,14,22,30,1.60
2010,07,14,22,31,1.60
2010,07,14,22,32,1.60
2010,07,14,22,33,1.60
2010,07,14,22,34,1.60
2010,07,14,22,39,1.60
2010,07,14,22,44,1.60
2010,07,14,22,46,1.60
2010,07,14,22,48,1.60
2010,07,14,22,51,1.60
2010,07,14,22,52,3.20
2010,07,14,22,53,8.10
2010,07,14,22,54,4.80
2010,07,14,22,55,1.60
2010,07,14,22,57,3.20
2010,07,14,22,59,1.60
2010,07,14,23,00,1.60
2010,07,14,23,01,1.60
2010,07,14,23,02,6.40
2010,07,14,23,03,1.60
2010,07,14,23,04,4.80
2010,07,14,23,05,3.20
2010,07,14,23,06,1.60
2010,07,14,23,07,1.60
2010,07,14,23,08,1.60
2010,07,14,23,10,1.60
2010,07,14,23,11,1.60
2010,07,14,23,12,1.60
2010,07,14,23,15,3.20
2010,07,14,23,16,1.60
2010,07,14,23,17,1.60
2010,07,14,23,18,6.40
2010,07,14,23,19,6.40
2010,07,14,23,20,1.60
2010,07,14,23,21,1.60
2010,07,14,23,22,1.60
2010,07,14,23,23,3.20
2010,07,14,23,24,6.40
2010,07,14,23,25,6.40
2010,07,14,23,26,4.80
2010,07,14,23,27,1.60
2010,07,14,23,28,3.20
2010,07,14,23,29,3.20
2010,07,14,23,30,4.80
2010,07,14,23,31,1.60
2010,07,14,23,32,4.80
2010,07,14,23,33,8.10
2010,07,14,23,34,8.10
2010,07,14,23,35,6.40
2010,07,14,23,36,3.20
2010,07,14,23,37,4.80
2010,07,14,23,38,9.60
2010,07,14,23,39,8.10
2010,07,14,23,40,8.10
2010,07,14,23,41,4.80
2010,07,14,23,42,6.40
2010,07,14,23,43,9.60
2010,07,14,23,44,11.30
2010,07,14,23,45,16.10
2010,07,14,23,46,8.10
2010,07,14,23,47,8.10
2010,07,14,23,48,6.40
2010,07,14,23,49,8.10
2010,07,14,23,50,4.80
2010,07,14,23,51,4.80
2010,07,14,23,52,4.80
2010,07,14,23,53,11.30
2010,07,14,23,54,6.40
2010,07,14,23,55,1.60
2010,07,14,23,58,1.60
2010,07,14,23,59,1.60
